Weather History for Grand Island, NE

Change the Weather History Date:

Friday, March 1, 2013

  Actual Average Record
Temperature  
Mean Temperature 23 °F 34 °F  
Max Temperature 30 °F 45 °F 80 °F (1992)
Min Temperature 15 °F 23 °F -10 °F (1980)
Degree Days  
Heating Degree Days 42 31  
Month to date heating degree days 42 31  
Since 1 July heating degree days 4511 4792  
Cooling Degree Days 0 0  
Month to date cooling degree days 0 0  
Year to date cooling degree days 0 0  
Moisture  
Dew Point 19 °F    
Average Humidity 76    
Maximum Humidity 88    
Minimum Humidity 63    
Precipitation  
Precipitation 0.00 in 0.03 in 0.50 in (2002)
Month to date precipitation 0.00 0.03  
Year to date precipitation 1.13 1.24  
Snow  
Snow 0.00 in 0.20 in 10.00 in (2002)
Month to date snowfall 0.0 0.2  
Since 1 July snowfall 21.4 22.3  
Snow Depth 3.00 in    
Sea Level Pressure  
Sea Level Pressure 30.36 in    
Wind  
Wind Speed 10 mph (North)    
Max Wind Speed 20 mph    
Max Gust Speed 23 mph    
Visibility 10 miles    
Events      
T = Trace of Precipitation, MM = Missing Value Source: NWS Daily Summary

Daily Weather History Graph

Daily Weather History Graph

Search for Another Location

Airport:

Trip Planner

Search our weather history database for the weather conditions in past years. The results will help you decide how hot, cold, wet, or windy it might be!

Date:

Astronomy

Mar. 01, 2013 Rise Set
Actual Time 7:06 AM CST 6:24 PM CST
Civil Twilight 6:39 AM CST 6:52 PM CST
Nautical Twilight 6:07 AM CST 7:24 PM CST
Astronomical Twilight 5:35 AM CST 7:55 PM CST
Moon 11:02 PM CST (3/1) 8:52 AM CST (3/1)
Length of Visible Light 12h 12m
Length of Day
11h 17m
Waning Gibbous, 83% of the Moon is Illuminated
Mar 1
Waning Gibbous
Mar 4
Last Quarter
Mar 11
New
Mar 19
First Quarter
Mar 27
Full

Hourly Weather History & Observations

Time (CST) Temp. Windchill Dew Point Humidity Pressure Visibility Wind Dir Wind Speed Gust Speed Precip Events Conditions
12:53 AM 27.0 °F 18.7 °F 21.9 °F 81% 30.30 in 10.0 mi North 8.1 mph - N/A   Overcast
1:53 AM 27.0 °F 18.0 °F 21.9 °F 81% 30.30 in 10.0 mi North 9.2 mph - N/A   Overcast
2:53 AM 27.0 °F 17.3 °F 21.0 °F 78% 30.30 in 10.0 mi North 10.4 mph - N/A   Overcast
4:53 AM 25.0 °F 14.8 °F 19.9 °F 81% 30.30 in 10.0 mi North 10.4 mph - N/A   Overcast
5:53 AM 26.6 °F 15.7 °F 19.4 °F 74% 30.24 in 10.0 mi NNW 12.7 mph - N/A   Overcast
6:53 AM 25.0 °F 13.1 °F 21.0 °F 85% 30.32 in 10.0 mi North 13.8 mph - N/A   Overcast
7:53 AM 25.0 °F 13.6 °F 19.9 °F 81% 30.34 in 10.0 mi North 12.7 mph - N/A   Overcast
9:53 AM 26.1 °F 14.5 °F 21.0 °F 81% 30.37 in 10.0 mi North 13.8 mph - N/A   Overcast
10:53 AM 25.0 °F 13.6 °F 19.9 °F 81% 30.38 in 10.0 mi NNE 12.7 mph - N/A   Overcast
11:53 AM 27.0 °F 15.2 °F 19.9 °F 75% 30.38 in 10.0 mi North 15.0 mph - N/A   Overcast
12:53 PM 27.0 °F 14.3 °F 19.9 °F 75% 30.38 in 10.0 mi North 17.3 mph - N/A   Overcast
1:53 PM 28.0 °F 16.5 °F 19.9 °F 72% 30.36 in 10.0 mi North 15.0 mph - N/A   Mostly Cloudy
2:53 PM 28.9 °F 18.2 °F 19.9 °F 69% 30.35 in 10.0 mi North 13.8 mph - N/A   Scattered Clouds
3:53 PM 30.0 °F 19.5 °F 21.0 °F 69% 30.35 in 10.0 mi North 13.8 mph - N/A   Scattered Clouds
4:53 PM 30.0 °F 20.0 °F 19.9 °F 66% 30.37 in 10.0 mi North 12.7 mph - N/A   Clear
5:53 PM 28.4 °F 19.1 °F 19.4 °F 69% 30.31 in 10.0 mi North 10.4 mph - N/A   Clear
6:53 PM 24.1 °F 18.2 °F 19.0 °F 81% 30.40 in 10.0 mi North 4.6 mph - N/A   Clear
7:53 PM 21.0 °F 13.4 °F 17.1 °F 85% 30.41 in 10.0 mi North 5.8 mph - N/A   Clear
8:53 PM 21.9 °F 15.7 °F 17.1 °F 82% 30.41 in 10.0 mi North 4.6 mph - N/A   Clear
9:53 PM 19.0 °F 13.9 °F 15.1 °F 85% 30.42 in 10.0 mi NNW 3.5 mph - N/A   Clear
10:53 PM 17.1 °F 10.0 °F 14.0 °F 88% 30.42 in 10.0 mi NNE 4.6 mph - N/A   Clear
11:53 PM 16.0 °F - 12.9 °F 88% 30.41 in 10.0 mi Calm Calm - N/A   Clear